TimeMDT,TemperatureF,Dew PointF,Humidity,Sea Level PressureIn,VisibilityMPH,Wind Direction,Wind SpeedMPH,Gust SpeedMPH,PrecipitationIn,Events,Conditions,WindDirDegrees,DateUTC
12:41 AM,78.8,64.4,61,29.83,10.0,Calm,Calm,-,N/A,,Scattered Clouds,0,2012-10-20 06:41:00
1:42 AM,75.2,64.4,69,29.83,10.0,Calm,Calm,-,N/A,,Scattered Clouds,0,2012-10-20 07:42:00
2:43 AM,73.4,64.4,73,29.82,10.0,Calm,Calm,-,N/A,,Scattered Clouds,0,2012-10-20 08:43:00
4:41 AM,69.8,64.4,83,29.82,10.0,Calm,Calm,-,N/A,,Scattered Clouds,0,2012-10-20 10:41:00
6:15 AM,71.6,62.6,73,29.82,10.0,Calm,Calm,-,N/A,,Scattered Clouds,0,2012-10-20 12:15:00
6:46 AM,69.8,64.4,83,29.84,10.0,Calm,Calm,-,N/A,,Partly Cloudy,0,2012-10-20 12:46:00
7:41 AM,69.8,64.4,83,29.85,10.0,Calm,Calm,-,N/A,,Clear,0,2012-10-20 13:41:00
8:44 AM,77.0,66.2,69,29.85,10.0,East,6.9,-,N/A,,Clear,90,2012-10-20 14:44:00
8:45 AM,72,56,48,29.85,7,SW,2.2,,,,,230,2012-10-20 14:45:00
9:47 AM,80.6,64.4,58,29.88,10.0,SE,6.9,-,N/A,,Clear,130,2012-10-20 15:47:00
10:44 AM,82.4,64.4,54,29.89,10.0,East,4.6,-,N/A,,Clear,90,2012-10-20 16:44:00
11:30 AM,83,64,43,29.85,7,SE,2.2,,,,,130,2012-10-20 17:30:00
11:41 AM,86.0,62.6,45,29.84,10.0,Calm,Calm,-,N/A,,Clear,0,2012-10-20 17:41:00
12:41 PM,89.6,60.8,38,29.86,10.0,SSW,6.9,-,N/A,,Clear,200,2012-10-20 18:41:00
1:47 PM,89.6,60.8,38,29.86,10.0,Calm,Calm,-,N/A,,Clear,0,2012-10-20 19:47:00
2:43 PM,95.0,53.6,25,29.75,10.0,South,11.5,-,N/A,,Clear,190,2012-10-20 20:43:00
3:43 PM,95.0,51.8,23,29.80,10.0,SSW,9.2,-,N/A,,Clear,210,2012-10-20 21:43:00
4:40 PM,95.0,50.0,22,29.79,10.0,South,4.6,-,N/A,,Clear,190,2012-10-20 22:40:00
5:45 PM,93.2,48.2,21,29.74,10.0,South,6.9,-,N/A,,Clear,170,2012-10-20 23:45:00
6:43 PM,89.6,53.6,29,29.79,10.0,SW,11.5,-,N/A,,Clear,220,2012-10-21 00:43:00
7:40 PM,86.0,51.8,31,29.80,10.0,SSW,8.1,-,N/A,,Clear,210,2012-10-21 01:40:00
8:43 PM,82.4,48.2,30,29.77,10.0,SSW,5.8,-,N/A,,Clear,210,2012-10-21 02:43:00
9:42 PM,80.6,46.4,30,29.84,10.0,Calm,Calm,-,N/A,,Clear,0,2012-10-21 03:42:00
10:58 PM,77.0,48.2,36,29.85,8.0,Calm,Calm,-,N/A,,Clear,0,2012-10-21 04:58:00
11:40 PM,73.4,50.0,44,29.79,8.0,Calm,Calm,-,N/A,,Clear,0,2012-10-21 05:40:00